DROR 1

Last updated on Thu Mar 05 2026 00:03:01 GMT+0000 (Coordinated Universal Time)

1 64784U 25148A 26063.38239013 -.00000046 00000+0 00000+0 0 9994 2 64784 0.0279 87.4864 0003538 258.2270 310.0588 1.00272087 2241
UTC large
Height (km)
Speed (km/s)
/
Latitude / Longitude
Inclination (degrees)
Orbital Period (minutes)
Azimuth
Elevation
Range (km)
Doppler Factor

Next 0 passes for location: London (51.5072 / 0.1276)

Sorry there are no passes over London.